sat.trackr.live / text

‹ back to catalog

STARLINK-5220

NORAD 54760 · 2022-175C

PAYLOAD ACTIVE UNKNOWN

§ Identity

Operator
Country
US
Launch date
2022-12-17
Launch site
AFETR
Launch vehicle
Mass (kg)
RCS (m²)

Purposes: comms

External: N2YO · Heavens-Above · Gunter

§ Orbital elements

Epoch: 2026-09-20T13:47:15.367488Z

Period
93.79 min
Inclination
53.1619°
Eccentricity
0.0001554
Mean motion
15.35391173 rev/d
Perigee alt
458.7 km
Apogee alt
460.8 km
Semi-major
6,837.9 km
B*
2.3571e-5
RAAN
244.1307°
Arg perigee
68.9757°
Mean anomaly
291.1412°
Rev number
20,940

§ Raw data

STARLINK-52201 54760U 22175C   26263.57448342  .00000441  00000+0  23571-4 0  99952 54760  53.1619 244.1307 0001554  68.9757 291.1412 15.35391173209400

JSON: /api/v1/satellites/54760 · /tle

For live sub-satellite position, see the globe view (requires WebGL).

§ Visibility from observer

Set your observer location to see the next 7 days of passes ≥ 10°. The values pass through the URL so the page stays shareable.

No JS? Fill the form by hand. The geolocation button needs JavaScript.